Regional Weather Roundup
Issued by NWS

Home | Current Version | Previous Version | Graphics & Text | Print | Product List | Glossary On
Versions: 1 2 3 4 5 6 7 8 9 10 11 12 13 14 15 16 17 18 19 20 21 22 23 24 25 26 27 28 29 30 31 32 33 34 35 36 37 38 39 40 41 42 43 44 45 46 47 48 49 50
000
ASUS43 KDMX 201406
RWRIA

WEATHER ROUNDUP FOR IOWA
NATIONAL WEATHER SERVICE DES MOINES IA
900 AM CDT SUN AUG 20 2017

NOTE: "FAIR" INDICATES FEW OR NO CLOUDS BELOW 12,000 FEET WITH NO
SIGNIFICANT WEATHER AND/OR OBSTRUCTIONS TO VISIBILITY.

* - THESE STATIONS ARE NOT NWS STATIONS...THUS NOT UNDER NWS
QUALITY CONTROL.  THEY ALSO DO NOT REPORT WEATHER SUCH
AS PRECIPITATION OR FOG.

IAZ001>003-012>014-020>022-031>034-043>046-201500-
   NORTHWEST IOWA

CITY           SKY/WX    TMP DP  RH WIND       PRES   REMARKS
CARROLL *      MOSUNNY   70  66  88 SE6       29.95F
DENISON *      PTSUNNY   70  66  88 E13       29.95S
LE MARS *      SUNNY    102 N/A N/A CALM      29.95S
ORANGE CITY *  MOSUNNY   72  66  83 S7        29.95F
SHELDON *      SUNNY     73  63  68 SW7       29.93F
SIOUX CITY     CLOUDY    71  65  81 CALM      29.95R
SPENCER        SUNNY     71  64  78 S6        29.96R
STORM LAKE *   MOSUNNY   72  63  73 S8        29.96S
$$

IAZ055>058-069>071-079>083-090>094-201500-
   SOUTHWEST IOWA

CITY           SKY/WX    TMP DP  RH WIND       PRES   REMARKS
ATLANTIC *     PTSUNNY   68  66  94 E8        29.94S
AUDUBON *      CLOUDY    70  64  83 SE5       29.97R
CLARINDA *     CLOUDY    70  66  88 S9G20     29.95R
COUNCIL BLFS * CLOUDY    68  68 100 S7        29.94R
CRESTON *      PTSUNNY   68  66  94 NE10      29.98R
HARLAN  *      PTSUNNY   68  68 100 E8        29.96S
LAMONI         CLOUDY    70  64  81 S18G25    29.94F
RED OAK *      CLOUDY    68  66  94 S10G24    29.93R
SHENANDOAH *   CLOUDY    68  64  88 NE7       29.97R
$$

IAZ047>049-059>061-072>074-084-201500-
   CENTRAL IOWA

CITY           SKY/WX    TMP DP  RH WIND       PRES   REMARKS
AMES           LGT RAIN  69  68  96 S9        29.96R
ANKENY *       PTSUNNY   70  68  94 CALM      29.96R
BOONE *        PTSUNNY   70  66  88 CALM      29.96R
CHARITON *     CLOUDY    70  66  88 S9G17     29.96S
DES MOINES     CLOUDY    70  67  90 CALM      29.95S
GRINNELL*      LGT RAIN  67  65  93 E5        30.01F
KNOXVILLE *    CLOUDY    68  66  94 SE7       29.96R
MARSHALLTOWN   LGT RAIN  70  65  84 S20       29.96S
NEWTON *       CLOUDY    68  66  94 E7        29.98S
PELLA *        CLOUDY    68  66  95 E5        29.99R
PERRY *          N/A     71  69  94 S6        29.96R
$$

IAZ004>006-015-016-023>025-035-036-201500-
   NORTH CENTRAL IOWA

CITY           SKY/WX    TMP DP  RH WIND       PRES   REMARKS
ALGONA *       MOSUNNY   72  66  83 SW8       29.97R
CLARION *      CLOUDY    70  68  94 SE7       29.97R
ESTHERVILLE    CLOUDY    68  66  93 S5        29.94R
FORT DODGE *   CLOUDY    70  63  78 CALM      29.97R
MASON CITY     CLOUDY    67  65  93 S7        29.99R
FOREST CITY *    N/A     68  66  94 S6        29.98R
WEBSTER CITY * PTSUNNY   70  66  88 CALM      29.95R
IOWA FALLS *     N/A     69  66  89 CALM      30.00R
$$

IAZ007>011-017>019-026>030-037>042-050>054-066-201500-
   NORTHEAST IOWA

CITY           SKY/WX    TMP DP  RH WIND       PRES   REMARKS
CEDAR RAPIDS   LGT RAIN  66  65  96 CALM      30.02R FOG
CHARLES CITY * CLOUDY    66  66 100 S8        29.99R
CLINTON *      CLOUDY    67  64  90 S3        30.04R
DECORAH *      CLOUDY    66  63  88 S3        29.99R
DUBUQUE        CLOUDY    67  63  87 SW9       30.02R
MONTICELLO *   CLOUDY    68  64  88 S5        30.02R
OELWEIN *      CLOUDY    66  66 100 S8        30.01R
WATERLOO       CLOUDY    68  64  87 SE6       29.98R
$$

IAZ064-065-067-068-078-201500-
   EAST CENTRAL IOWA

CITY           SKY/WX    TMP DP  RH WIND       PRES   REMARKS
DAVENPORT      CLOUDY    68  64  87 SW6       30.05R
IOWA CITY      LGT RAIN  69  65  86 CALM      30.04R
MUSCATINE *    CLOUDY    70  64  83 SW3       30.04R
QUAD CITIES    CLOUDY    70  65  84 SW6       30.03R
$$

IAZ062-063-075>077-085>089-095>099-201500-
   SOUTHEAST IOWA

CITY           SKY/WX    TMP DP  RH WIND       PRES   REMARKS
BURLINGTON     CLOUDY    70  67  90 NW6       30.03R
FAIRFIELD *    CLOUDY    68  66  94 S8        30.02F FOG
FORT MADISON * LGT RAIN  70  66  88 NW8       30.04F
KEOKUK *       LGT RAIN  70  68  94 SW9       30.05R
OSKALOOSA *    CLOUDY    67  66  96 SE6       29.99F
OTTUMWA        CLOUDY    69  67  93 SE9       29.98F
WASHINGTON *   LGT RAIN  68  68 100 S6        30.04R
$$

ABBREVIATIONS USED IN REMARKS
   TC - TEMPERATURES IN CELSIUS
  WCI - WIND CHILL INDEX
   HX - HEAT INDEX
  VSB - VISIBILITY
$$




USA.gov is the U.S. government's official web portal to all federal, state and local government web resources and services.